STARLINK-34216, 64337

Orbit data source: Space-Track

STARLINK-34216, 64337 is a payload satellite owned by SpaceX/Seattle (US) in LEO that was launched on Tue, 10 Jun 2025 UTC via an FALCON 9 launch vehicle from the Air Force Eastern Test Range (AFETR). Payload-class satellites include a variety of spacecraft equipped with specific instruments for various scientific and technological missions. These include communications satellites like Starlink; space stations such as the ISS; scientific satellites like the Hubble; Earth observation satellites from companies like Planet Labs, Umbra, and HawkEye 360; GPS; miniature CubeSats for education and research; and military/defense satellites.

Loading next visibility...
Identifier
64337, 2025-124W
Orbit
LEO
Last TLE update
10 hours ago
Origin
Manufacturer
SpaceX/Seattle
Mission
Operational spacecraft
Bus & Motor
STARLINK V2MO, Unknown motor
Mass
575 kg wet, ~530 kg dry
Launch date (UTC)
2025-06-10 (3 weeks ago)
Launch vehicle
FALCON 9
Launch site
Air Force Eastern Test Range (AFETR)
Object type
Payload
Rocket body
Debris
Shape & HBR
Unknown
Radar Cross Section
Large (>1 m²)

Expand to show TLE details & history

TLE from 10 hours ago
0 STARLINK-34216
1 64337U 25124W   25182.16668981  .00085316  00000-0  14476-2 0  9997
2 64337  43.0001 107.1331 0001485 276.1690 172.2644 15.50514376  4364
Epoch: 2025-07-01T04:00Z
TLE epoch observation values (Epoch: 2025-07-01T04:00:01.999Z)
Latitude
43.13982°
Longitude
-144.48205°
Altitude
419.353 km
Speed
7.665 km/s
True Right ascension
12h 59m 58s
True Declination
42° 57' 35"
Sunlit
Object was in daylight at epoch
Visualization orbit readout
Latitude
-20.59905°
Longitude
-31.1017°
Altitude
419.272 km
Speed
7.661 km/s
Apparent Right ascension
17h 39m 56s
Apparent Declination
-43° 20' 08"
Sunlit
Object is in full shadow
Visualization observer readout
Local Sidereal Time
01:27:07
Azimuth
244.05° WSW
Elevation
-43.777°
Doppler factor
1
Orbital elements
Apogee altitude
418.197 km
Perigee altitude
416.179 km
Semi-major axis
6,795.325 km
Eccentricity
0.00015
Inclination
43.0001°
RAAN
107.1331°
Arg. of periapsis
276.169°
True anomaly
Unknown
Mean anomaly
172.2644°
Eccentric anomaly
Unknown
Mean motion
3.87461 °/min
Orbital period
92.91 mins
BSTAR
0.0014476
Loading maneuver chart data...
Loading SW <> Apogee altitude chart data...
Loading historical data...
Loading historical data...
Loading historical data...
Loading historical data...
Loading historical data...
Loading historical data...
Loading historical data...

STARLINK-34216 Visibility forecast

Observer location: undefined°, undefined°

Span
Click to sort rows by Start time (UTC) header in descending order
Start Az.
Max El. time (UTC)
Max El. Az.
Max El.
End time (UTC)
End Az.
5 mins2025-07-01 22:23:07.350Z217.992° SW2025-07-01 22:26:07.350Z132.651° SE30.68°2025-07-01 22:28:07.350Z87.592° E
5 mins2025-07-02 00:01:07.350Z273.133° WNW2025-07-02 00:03:07.350Z354.638° N41.041°2025-07-02 00:06:07.350Z69.264° E
4 mins2025-07-02 01:39:07.350Z301.226° NW2025-07-02 01:41:07.350Z33.642° NE36.199°2025-07-02 01:43:07.350Z79.03° E
5 mins2025-07-02 03:16:07.350Z279.808° WNW2025-07-02 03:18:07.350Z213.654° SW41.461°2025-07-02 03:21:07.350Z123.038° SE
|